Temp
-21 -21 -20 -20 -19 -19 -18 -18 -18 -18 -18 -17 -16 -15 -16 -16 -15 -16 -16 -16 -16 -15 -15 -15 -14 -14 -14 -14 -13 -13 -13 -13 -13 -13 -13 -13 -13 -13 -13 -13 -13 -13 -13 -13
-20 -21 -20 -20 -20 -19 -19 -18 -18 -18 -18 -17 -16 -15 -16 -16 -16 -16 -16 -16 -16 -15 -15 -15 -15 -14 -14 -14 -13 -13 -14 -14 -13 -13 -13 -13 -13 -13 -13 -13 -13 -13 -13 -13
-20 -20 -20 -20 -20 -20 -19 -19 -19 -19 -18 -17 -17 -16 -16 -16 -16 -16 -17 -17 -16 -15 -15 -15 -15 -14 -14 -14 -14 -14 -14 -14 -14 -13 -13 -14 -13 -13 -13 -13 -13 -13 -13 -14
-20 -20 -20 -20 -20 -20 -20 -20 -19 -19 -19 -18 -18 -16 -16 -17 -16 -17 -17 -17 -16 -16 -16 -16 -15 -14 -14 -14 -14 -14 -14 -14 -13 -13 -14 -14 -13 -13 -13 -13 -13 -13 -14 -14
-20 -20 -20 -20 -20 -20 -20 -20 -20 -20 -19 -19 -18 -17 -16 -16 -17 -17 -18 -17 -17 -17 -16 -16 -15 -15 -15 -14 -14 -14 -14 -14 -14 -14 -14 -14 -14 -13 -13 -14 -13 -14 -14 -14
-21 -21 -21 -21 -20 -20 -20 -20 -20 -20 -20 -19 -19 -18 -17 -17 -17 -17 -18 -18 -17 -16 -17 -16 -16 -15 -14 -14 -14 -15 -14 -14 -14 -14 -14 -14 -14 -14 -14 -14 -14 -14 -14 -14
-21 -21 -21 -21 -21 -21 -21 -21 -21 -21 -20 -19 -19 -18 -18 -18 -18 -17 -17 -18 -18 -18 -17 -17 -16 -15 -15 -15 -15 -15 -14 -14 -14 -14 -14 -14 -14 -14 -14 -14 -14 -14 -14 -14
-21 -21 -21 -21 -21 -21 -21 -21 -21 -21 -20 -20 -20 -19 -18 -18 -18 -18 -18 -18 -19 -18 -17 -18 -16 -16 -15 -15 -15 -15 -15 -15 -15 -14 -14 -14 -14 -14 -14 -14 -14 -15 -15 -15
-22 -22 -22 -22 -22 -22 -21 -21 -22 -21 -21 -20 -19 -19 -19 -20 -19 -18 -18 -18 -19 -18 -18 -17 -18 -16 -16 -15 -15 -15 -15 -15 -15 -15 -14 -14 -14 -14 -14 -15 -14 -14 -15 -15
-23 -23 -23 -22 -22 -22 -22 -22 -22 -22 -21 -20 -20 -20 -20 -20 -20 -20 -19 -19 -19 -19 -18 -18 -17 -17 -16 -16 -15 -15 -15 -15 -15 -15 -15 -15 -15 -14 -15 -15 -15 -15 -15 -15
-24 -24 -23 -23 -23 -23 -23 -23 -23 -23 -22 -21 -20 -20 -20 -21 -21 -20 -20 -19 -19 -19 -18 -18 -18 -17 -16 -16 -16 -16 -15 -15 -15 -15 -15 -15 -15 -15 -15 -15 -15 -15 -15 -15
-25 -25 -24 -24 -24 -24 -24 -24 -24 -23 -22 -22 -21 -19 -20 -21 -21 -20 -20 -19 -19 -18 -19 -18 -17 -18 -17 -16 -16 -16 -16 -15 -15 -15 -15 -15 -15 -15 -15 -15 -15 -15 -15 -16
-26 -26 -25 -24 -24 -24 -24 -24 -24 -24 -23 -22 -22 -21 -20 -20 -21 -21 -20 -20 -20 -19 -19 -18 -18 -17 -17 -17 -16 -16 -16 -16 -15 -15 -15 -15 -15 -16 -16 -15 -16 -15 -16 -16
-26 -26 -26 -26 -26 -25 -25 -24 -25 -25 -24 -23 -22 -22 -21 -21 -23 -22 -21 -21 -20 -20 -19 -19 -18 -18 -17 -17 -16 -16 -16 -16 -16 -16 -16 -16 -16 -16 -16 -16 -16 -16 -16 -16
-27 -27 -26 -26 -26 -26 -26 -25 -26 -25 -24 -24 -21 -22 -22 -22 -22 -22 -22 -21 -21 -20 -20 -19 -19 -18 -18 -17 -17 -17 -16 -16 -16 -16 -16 -16 -16 -16 -16 -16 -16 -16 -16 -16
-28 -27 -28 -26 -27 -27 -26 -26 -25 -26 -25 -24 -23 -22 -24 -22 -22 -22 -22 -21 -21 -21 -20 -19 -19 -18 -18 -18 -17 -17 -17 -17 -17 -16 -16 -16 -16 -16 -16 -16 -16 -17 -16 -17
-30 -30 -30 -27 -28 -28 -26 -26 -26 -26 -25 -25 -24 -23 -23 -22 -22 -22 -22 -22 -21 -21 -21 -20 -19 -19 -19 -18 -18 -17 -17 -17 -17 -17 -17 -17 -17 -17 -17 -17 -17 -17 -17 -17
-33 -34 -35 -31 -31 -30 -27 -28 -28 -27 -26 -25 -25 -24 -23 -23 -22 -22 -22 -22 -22 -21 -21 -20 -20 -19 -19 -19 -19 -18 -18 -18 -17 -17 -17 -17 -17 -17 -17 -17 -17 -17 -18 -17
-36 -36 -36 -36 -36 -35 -31 -30 -30 -29 -27 -26 -25 -24 -24 -23 -23 -23 -23 -22 -22 -22 -21 -21 -20 -19 -19 -19 -19 -19 -18 -18 -18 -18 -18 -18 -18 -18 -17 -18 -18 -18 -18 -18
-36 -36 -36 -36 -36 -36 -35 -34 -33 -34 -28 -30 -27 -25 -24 -24 -24 -23 -23 -23 -22 -22 -22 -21 -21 -20 -19 -19 -19 -19 -18 -18 -18 -18 -18 -18 -18 -18 -18 -18 -18 -18 -18 -18
-36 -36 -36 -36 -36 -36 -36 -36 -36 -35 -32 -31 -29 -27 -25 -24 -24 -24 -24 -23 -22 -22 -21 -21 -21 -21 -20 -19 -19 -19 -19 -19 -19 -19 -19 -18 -18 -18 -18 -18 -18 -18 -18 -18
-36 -36 -36 -36 -37 -37 -36 -37 -37 -36 -35 -34 -32 -29 -26 -25 -24 -24 -24 -23 -23 -22 -22 -21 -21 -21 -21 -20 -19 -19 -19 -19 -19 -20 -19 -18 -18 -18 -18 -18 -18 -19 -19 -18
-37 -37 -37 -37 -37 -36 -36 -37 -37 -37 -37 -36 -34 -31 -28 -26 -26 -24 -24 -23 -23 -22 -22 -21 -21 -22 -22 -21 -20 -19 -19 -19 -19 -19 -19 -19 -18 -18 -18 -19 -19 -19 -19 -19
-37 -37 -37 -37 -36 -36 -37 -37 -37 -37 -37 -36 -35 -33 -30 -26 -26 -25 -24 -24 -23 -23 -22 -22 -22 -22 -22 -22 -21 -20 -19 -19 -19 -19 -19 -19 -19 -19 -19 -19 -19 -19 -19 -19
-37 -37 -37 -37 -36 -36 -37 -37 -37 -36 -36 -36 -35 -34 -31 -28 -27 -26 -24 -24 -24 -23 -23 -22 -22 -22 -22 -21 -22 -21 -20 -20 -19 -19 -19 -19 -19 -19 -19 -19 -19 -20 -20 -19
-37 -37 -37 -37 -36 -37 -37 -37 -36 -36 -36 -36 -35 -35 -33 -29 -28 -27 -25 -24 -24 -24 -23 -23 -22 -22 -22 -21 -21 -21 -21 -20 -20 -19 -19 -19 -19 -19 -19 -19 -20 -20 -20 -19
Height
5647 5648 5649 5650 5651 5652 5653 5654 5656 5661 5661 5661 5662 5662 5671 5671 5671 5675 5678 5680 5683 5688 5693 5694 5696 5699 5702 5706 5710 5715 5719 5724 5728 5732 5735 5738 5741 5743 5747 5749 5751 5751 5752 5752
5643 5643 5642 5642 5643 5644 5645 5646 5648 5651 5652 5651 5654 5654 5664 5665 5664 5665 5669 5671 5675 5679 5683 5687 5689 5692 5696 5701 5705 5708 5714 5719 5722 5726 5729 5732 5734 5737 5740 5742 5744 5744 5745 5745
5639 5638 5637 5637 5636 5637 5637 5638 5639 5640 5642 5644 5645 5645 5653 5659 5656 5657 5661 5664 5667 5670 5675 5678 5681 5686 5690 5694 5699 5704 5708 5712 5715 5719 5723 5726 5728 5731 5733 5735 5736 5737 5738 5738
5635 5633 5632 5631 5631 5630 5630 5630 5630 5631 5633 5634 5637 5632 5643 5651 5650 5649 5651 5653 5656 5659 5664 5668 5673 5677 5683 5689 5693 5696 5700 5704 5708 5712 5716 5719 5721 5724 5726 5728 5729 5730 5731 5731
5630 5628 5627 5626 5624 5623 5623 5623 5622 5622 5623 5624 5628 5626 5629 5641 5643 5643 5639 5639 5646 5650 5654 5659 5663 5669 5674 5679 5685 5688 5692 5696 5701 5706 5709 5711 5715 5717 5719 5721 5722 5723 5723 5724
5622 5621 5621 5619 5618 5617 5615 5615 5614 5614 5614 5613 5619 5619 5617 5630 5634 5634 5632 5631 5634 5640 5644 5648 5653 5659 5664 5670 5674 5679 5684 5690 5695 5699 5702 5704 5707 5709 5712 5713 5714 5715 5716 5716
5613 5612 5612 5612 5611 5610 5608 5607 5606 5606 5605 5605 5607 5608 5608 5620 5621 5622 5624 5623 5625 5631 5634 5638 5642 5649 5656 5663 5668 5673 5677 5683 5687 5690 5694 5697 5699 5701 5703 5705 5707 5708 5708 5709
5600 5602 5602 5602 5602 5601 5601 5600 5600 5596 5596 5596 5596 5597 5602 5609 5610 5611 5615 5615 5615 5618 5622 5626 5633 5639 5645 5651 5657 5663 5668 5674 5678 5681 5685 5688 5690 5693 5695 5697 5698 5700 5700 5702
5584 5588 5589 5590 5590 5591 5591 5591 5591 5588 5588 5586 5588 5590 5593 5597 5599 5601 5604 5605 5605 5608 5613 5619 5623 5629 5637 5642 5647 5653 5658 5664 5668 5671 5675 5679 5681 5684 5686 5689 5690 5692 5693 5694
5570 5571 5574 5577 5578 5578 5578 5579 5580 5578 5577 5576 5578 5580 5585 5588 5590 5590 5592 5594 5597 5599 5603 5608 5614 5620 5625 5632 5638 5642 5648 5653 5657 5660 5664 5669 5672 5675 5678 5680 5682 5684 5686 5687
5556 5557 5561 5563 5564 5564 5566 5566 5567 5568 5568 5566 5566 5572 5576 5578 5580 5580 5581 5584 5586 5588 5593 5598 5603 5609 5616 5621 5627 5632 5638 5643 5648 5652 5656 5660 5663 5666 5668 5671 5673 5676 5678 5680
5540 5540 5543 5547 5549 5550 5551 5552 5552 5552 5556 5553 5553 5559 5565 5566 5568 5570 5572 5573 5576 5579 5585 5590 5594 5599 5605 5611 5617 5622 5628 5634 5638 5643 5647 5650 5653 5656 5660 5662 5664 5667 5669 5671
5526 5525 5526 5529 5531 5533 5534 5537 5537 5538 5539 5542 5540 5544 5553 5554 5558 5560 5563 5565 5568 5571 5574 5578 5583 5588 5594 5600 5605 5611 5616 5622 5628 5633 5637 5640 5644 5647 5649 5653 5656 5658 5660 5662
5512 5514 5513 5514 5513 5514 5518 5520 5521 5521 5521 5524 5527 5534 5535 5544 5548 5552 5553 5557 5557 5562 5564 5569 5572 5577 5582 5588 5595 5599 5605 5610 5616 5622 5626 5630 5634 5637 5640 5644 5647 5649 5651 5652
5493 5494 5494 5497 5496 5495 5497 5502 5504 5503 5508 5505 5523 5511 5521 5529 5534 5541 5545 5545 5548 5553 5555 5556 5561 5566 5572 5578 5584 5589 5595 5600 5604 5610 5615 5620 5623 5627 5631 5635 5637 5639 5641 5643
5472 5472 5470 5476 5477 5473 5474 5482 5486 5491 5490 5493 5494 5498 5502 5512 5517 5527 5533 5535 5536 5537 5541 5547 5552 5559 5564 5569 5574 5580 5585 5590 5595 5600 5605 5608 5612 5618 5622 5624 5627 5629 5632 5633
5452 5450 5447 5453 5452 5448 5453 5465 5466 5468 5475 5477 5477 5480 5487 5494 5503 5513 5520 5522 5523 5528 5533 5536 5539 5545 5552 5558 5563 5569 5574 5579 5585 5590 5594 5598 5603 5608 5611 5614 5617 5619 5621 5623
5433 5431 5426 5426 5425 5421 5441 5441 5441 5444 5451 5454 5462 5464 5469 5474 5487 5499 5505 5510 5511 5515 5519 5523 5526 5532 5538 5545 5552 5557 5563 5569 5573 5578 5583 5589 5594 5597 5600 5603 5606 5609 5611 5613
5421 5419 5413 5408 5407 5403 5412 5420 5420 5420 5428 5432 5441 5447 5452 5457 5468 5483 5488 5494 5500 5503 5507 5511 5514 5519 5526 5532 5538 5543 5549 5556 5563 5568 5573 5577 5581 5584 5588 5592 5595 5597 5599 5601
5411 5408 5404 5399 5395 5390 5397 5400 5401 5399 5399 5411 5417 5427 5436 5439 5448 5466 5471 5480 5487 5491 5495 5499 5503 5508 5513 5518 5525 5533 5539 5545 5553 5558 5561 5563 5568 5572 5577 5580 5583 5585 5587 5589
5398 5396 5392 5389 5382 5379 5388 5391 5388 5381 5388 5391 5398 5406 5414 5421 5430 5447 5457 5466 5473 5479 5483 5488 5493 5497 5501 5506 5513 5520 5526 5536 5541 5542 5545 5551 5557 5561 5564 5567 5571 5573 5576 5578
5386 5384 5382 5378 5373 5369 5382 5375 5373 5372 5371 5371 5379 5387 5395 5404 5414 5429 5442 5450 5458 5466 5472 5475 5481 5486 5490 5495 5501 5508 5515 5521 5523 5528 5534 5539 5545 5548 5552 5556 5559 5562 5564 5566
5372 5373 5371 5367 5363 5367 5366 5366 5363 5361 5359 5360 5363 5371 5376 5386 5398 5414 5426 5436 5445 5453 5459 5464 5469 5474 5480 5484 5489 5496 5502 5507 5511 5518 5524 5528 5533 5536 5540 5544 5547 5550 5552 5554
5361 5362 5357 5356 5359 5359 5356 5355 5353 5353 5351 5350 5353 5357 5362 5372 5387 5400 5412 5422 5431 5439 5447 5453 5458 5463 5469 5474 5478 5483 5489 5494 5500 5507 5511 5516 5521 5524 5527 5531 5535 5537 5540 5542
5352 5349 5349 5346 5351 5350 5346 5344 5344 5345 5344 5343 5344 5346 5351 5359 5375 5388 5399 5409 5419 5426 5434 5441 5446 5452 5458 5464 5468 5473 5477 5482 5488 5494 5499 5503 5507 5510 5514 5518 5521 5524 5527 5529
5339 5339 5336 5337 5341 5336 5334 5335 5336 5333 5334 5334 5333 5339 5341 5349 5362 5376 5387 5397 5407 5415 5423 5430 5436 5441 5447 5453 5458 5463 5467 5471 5476 5481 5486 5491 5494 5497 5501 5504 5508 5511 5514 5516
Wind_Speed
21 24 24 37 34 35 36 38 38 35 36 38 38 39 30 31 37 36 42 42 40 39 38 39 39 40 39 35 36 35 34 33 32 31 30 28 28 28 27 28 29 29 29 30
16 18 25 25 29 33 34 37 37 36 37 41 40 41 31 30 30 37 40 43 41 40 40 39 40 40 38 35 34 35 33 32 32 32 30 29 30 28 28 28 29 29 30 31
15 17 19 23 26 30 33 35 34 38 38 41 42 43 37 30 32 34 38 42 40 40 41 39 40 40 37 38 35 33 33 34 35 33 30 31 30 29 28 28 29 29 30 30
18 19 17 21 24 28 29 33 36 37 37 41 41 48 39 31 33 33 36 42 39 41 43 40 40 42 39 36 37 37 37 37 36 33 30 30 30 28 29 29 28 29 29 29
25 24 21 19 22 25 28 28 32 33 38 43 42 46 45 32 31 31 32 43 40 42 42 43 39 43 42 41 39 40 40 39 36 33 32 31 31 30 30 29 29 29 28 28
30 30 27 26 24 23 26 29 30 30 34 39 38 43 49 35 29 27 31 41 44 38 44 43 45 43 47 45 44 43 41 37 36 35 34 34 33 31 31 30 29 29 28 27
37 35 33 31 30 28 28 26 29 31 31 35 36 39 47 35 32 31 28 35 39 38 41 43 44 43 47 46 45 42 41 40 38 37 36 34 34 34 32 31 31 29 28 27
44 42 40 37 35 34 31 31 29 31 31 33 32 38 37 31 33 34 28 31 39 37 37 42 40 45 48 50 47 44 42 40 38 37 37 36 37 35 32 32 32 30 28 28
49 48 44 43 40 39 37 35 33 35 34 34 33 32 32 28 29 33 31 31 38 38 41 38 42 46 48 50 48 46 44 42 41 41 41 40 39 35 34 34 32 32 30 29
46 48 47 47 46 44 41 39 37 37 39 39 35 33 30 26 28 30 26 30 39 37 39 43 41 45 47 50 50 49 47 44 44 45 43 40 39 37 36 35 34 33 31 29
44 46 46 45 46 46 45 44 42 42 43 44 43 37 30 28 26 26 33 29 33 43 40 42 45 44 48 49 50 49 48 47 45 44 42 41 39 39 38 36 35 33 33 31
47 48 48 46 45 45 46 47 47 49 48 49 48 44 36 32 30 30 31 37 34 43 43 42 45 48 47 49 51 49 47 46 46 44 43 42 42 40 39 37 35 34 34 32
50 52 51 51 50 50 50 48 50 51 52 53 53 52 43 39 32 34 33 34 32 33 49 46 44 48 51 50 50 50 48 47 46 44 44 44 42 41 39 38 36 35 35 34
55 54 55 55 55 55 53 53 51 52 56 59 57 52 50 42 34 23 30 30 37 40 34 54 49 47 51 52 50 49 50 48 46 46 45 44 42 43 39 39 37 37 37 35
58 58 60 58 60 61 60 58 56 57 56 60 52 61 55 49 44 37 34 37 39 36 40 41 57 50 47 49 50 48 48 47 45 46 45 43 44 42 40 39 39 38 39 37
59 61 62 63 62 66 67 65 63 60 61 60 61 62 57 54 51 42 33 38 40 41 44 41 45 59 49 47 46 46 46 44 43 44 44 44 44 43 41 41 40 40 40 40
60 59 60 65 65 68 72 67 67 67 64 63 64 64 61 60 56 47 39 37 43 43 40 43 42 45 58 52 48 47 48 48 47 46 46 45 43 43 44 43 41 42 42 41
53 46 44 58 59 65 66 66 69 71 70 70 66 67 65 64 59 53 44 41 42 45 44 43 46 47 45 54 50 51 49 50 50 48 47 46 46 45 44 43 43 43 42 42
34 33 39 43 45 52 57 60 61 67 71 72 71 69 67 66 61 55 51 45 44 46 46 45 46 48 47 44 60 57 57 54 52 52 50 48 48 48 48 43 45 46 43 42
31 34 41 44 45 49 44 44 46 51 72 62 71 71 69 67 64 57 55 50 46 46 50 50 45 47 50 50 48 59 56 57 55 50 51 50 52 49 45 49 50 47 46 43
35 35 40 40 45 46 37 35 36 47 52 57 64 70 72 70 65 57 54 51 49 46 47 53 50 43 43 50 49 50 48 55 54 51 53 56 52 51 51 51 50 48 43 42
30 36 39 42 46 50 24 31 35 35 36 45 53 64 71 69 65 58 51 51 49 47 46 50 50 47 40 40 49 50 52 49 55 57 60 58 56 52 49 49 50 45 42 43
37 35 35 34 32 28 28 27 29 30 34 33 41 55 67 66 61 56 51 48 48 48 46 48 49 48 43 39 39 44 50 51 52 51 52 53 53 52 52 51 44 39 41 42
36 31 36 35 27 26 29 30 31 31 36 36 33 41 58 66 56 53 50 44 43 45 46 46 46 47 46 43 39 38 41 48 52 49 51 50 50 48 51 47 41 37 39 42
34 34 30 33 24 26 31 34 37 35 35 40 38 38 47 56 53 49 48 45 42 42 44 46 44 46 47 45 43 40 38 39 44 44 47 48 47 46 46 44 41 42 41 43
22 24 28 27 27 34 36 38 38 43 39 36 41 30 42 44 48 47 43 41 41 42 44 45 44 46 46 44 43 43 41 39 39 41 41 43 45 44 42 42 42 39 40 43
Wind_Direction
273 270 273 260 262 261 259 258 258 255 254 253 256 257 254 254 248 247 238 236 241 234 232 238 239 236 232 227 224 222 215 212 214 218 221 224 228 231 236 242 249 256 264 270
295 280 269 269 264 263 264 262 261 257 254 255 251 254 253 257 257 246 237 237 240 235 232 234 237 234 230 228 222 216 216 218 221 223 224 226 229 234 239 246 253 259 265 268
314 290 276 270 270 267 266 266 266 263 257 256 256 254 252 251 258 255 240 234 239 236 233 235 235 231 228 223 221 221 223 224 227 228 225 226 230 235 242 248 255 260 265 269
301 305 294 277 271 270 266 270 268 266 263 258 257 258 252 250 251 259 249 236 233 236 233 234 231 228 226 223 223 223 225 229 230 230 230 230 232 237 243 249 255 259 263 266
289 289 292 296 280 272 272 273 271 270 265 260 257 259 255 245 249 256 258 236 230 232 233 231 230 226 224 222 223 226 228 231 232 231 231 232 235 238 244 249 253 258 261 262
281 283 284 284 287 288 280 273 273 273 268 265 262 258 255 253 250 249 250 245 230 231 231 231 228 228 223 221 222 227 231 233 232 231 232 232 235 240 246 249 252 256 259 261
275 274 274 276 278 279 281 283 279 273 271 272 267 259 256 258 255 249 243 245 240 229 234 229 229 227 223 223 226 229 231 232 231 231 233 234 237 242 247 251 253 255 257 260
270 268 267 267 268 270 272 275 277 278 275 269 269 261 263 263 255 251 245 237 231 231 228 232 225 224 221 221 224 227 231 232 232 233 235 236 239 243 247 250 252 255 256 260
271 266 265 263 261 262 264 266 267 272 274 275 264 265 266 258 253 253 245 235 226 226 224 226 224 220 222 220 222 226 229 230 231 233 235 237 240 246 247 249 252 254 256 259
269 268 265 263 261 259 259 257 258 261 266 268 270 267 265 269 260 252 245 239 230 224 222 221 223 222 218 220 224 226 228 229 231 232 234 238 241 245 246 248 249 252 256 259
268 266 264 261 259 258 257 257 256 256 257 262 266 264 269 264 259 252 244 237 237 219 224 219 218 220 222 220 221 225 229 231 233 235 236 237 240 243 244 245 248 252 254 257
268 266 265 262 261 258 256 254 254 254 253 255 260 256 258 261 252 245 238 239 235 227 221 222 219 219 221 221 223 224 228 231 232 233 235 236 239 241 243 245 247 251 253 255
263 264 264 262 260 257 256 254 253 253 253 251 255 256 261 261 261 249 240 238 231 231 220 221 221 219 220 222 222 224 226 230 232 233 234 237 239 240 242 245 247 250 252 254
268 265 264 263 262 262 258 255 254 252 251 251 249 255 253 251 252 243 230 234 240 237 230 221 222 220 220 223 223 224 225 227 229 231 234 236 237 239 241 244 248 250 252 253
271 268 264 261 261 260 258 254 255 257 253 252 245 252 253 254 249 247 248 243 241 238 237 230 223 222 221 221 225 227 229 228 228 231 233 234 237 239 241 244 247 250 252 253
272 270 266 262 259 258 256 254 251 252 257 255 252 246 252 248 249 246 245 240 237 235 230 232 228 224 223 222 222 226 227 226 229 232 232 232 235 239 241 245 247 250 252 254
276 275 272 264 261 257 254 254 253 250 248 251 252 251 249 246 245 243 238 239 235 237 235 232 230 229 223 225 222 224 227 230 232 231 232 233 235 238 243 246 247 249 251 253
283 284 280 275 268 261 256 252 252 251 248 245 246 249 248 248 242 241 241 234 236 232 234 235 231 227 224 217 219 222 224 229 228 224 229 236 241 241 242 244 246 249 252 254
279 275 273 279 280 277 259 255 253 250 244 247 243 243 246 248 245 239 239 234 231 233 229 230 232 230 229 228 221 219 222 225 228 230 234 233 234 236 240 242 246 249 251 253
277 270 265 275 281 282 275 267 260 254 245 245 244 242 242 245 245 239 238 234 230 231 230 231 231 232 228 228 228 227 224 225 228 231 231 232 236 239 245 252 252 254 253 250
273 264 270 273 275 276 279 277 275 264 258 247 240 239 239 240 242 237 236 234 230 229 231 230 233 234 231 228 228 228 229 231 233 235 234 240 243 242 246 251 248 253 254 252
267 271 273 273 271 270 277 273 279 282 272 256 241 236 235 237 238 236 234 232 231 228 230 232 232 235 235 228 228 228 230 231 232 229 236 238 234 239 246 250 253 253 257 256
270 278 275 270 277 264 267 279 284 281 268 254 246 235 233 232 234 233 229 229 228 228 227 230 234 233 233 237 225 226 226 228 236 237 238 239 243 249 253 256 255 251 257 255
270 270 272 268 266 267 272 274 275 275 278 255 245 231 231 230 229 229 226 226 225 225 225 226 231 231 232 233 236 230 226 226 229 235 242 245 250 252 250 254 246 247 255 256
271 267 277 268 263 270 272 270 269 273 277 276 253 237 227 228 224 224 225 225 222 222 222 222 227 229 229 232 235 236 235 233 230 231 235 240 246 245 245 245 242 247 254 254
270 275 268 268 267 275 274 274 277 277 276 273 253 241 228 221 219 220 220 221 221 220 220 219 222 226 227 228 231 236 239 239 238 238 239 241 244 245 244 242 246 250 254 256